Regional Weather Roundup
Issued by NWS

Home | Current Version | Previous Version | Graphics & Text | Print | Product List | Glossary Off
Versions: 1 2 3 4 5 6 7 8 9 10 11 12 13 14 15 16 17 18 19 20 21 22 23 24 25 26 27 28 29 30 31 32 33 34 35 36 37 38 39 40 41 42 43 44 45 46 47 48 49 50

000
ASUS43 KDTX 301601
RWRMI
MICHIGAN HOURLY REGIONAL WEATHER ROUNDUP
NATIONAL WEATHER SERVICE DETROIT/PONTIAC MI
1200 PM EDT THU JUL 30 2015

NOTE: "FAIR" INDICATES FEW OR NO CLOUDS BELOW 12,000 FEET WITH NO
SIGNIFICANT WEATHER AND/OR OBSTRUCTION TO VISIBILITY.

MIZ047>049-052>055-059>063-066>070-074>076-081>083-301700-
SOUTHEAST LOWER MICHIGAN

CITY           SKY/WX    TMP DP  RH WIND       PRES   REMARKS
ADRIAN         SUNNY     79  59  50 NW10      30.02R
ALMA           SUNNY     79  56  44 W14G22    29.96S
ANN ARBOR      SUNNY     80  60  50 W12       29.99R
BAD AXE        SUNNY     77  59  54 W13G18    29.91S
CARO           SUNNY     80  59  48 W13G20    29.92S
DETROIT CITY   SUNNY     82  56  40 W10G18    29.96S
DETROIT        MOSUNNY   83  57  41 W14       29.97S
FLINT          SUNNY     83  59  44 W15       29.96S
GROSSE ILE     SUNNY     82  57  42 W9        29.96S
HILLSDALE      SUNNY     80  58  47 NW13      30.03S
HOWELL         SUNNY     81  54  38 NW13G21   29.98S

CITY           SKY/WX    TMP DP  RH WIND       PRES   REMARKS
JACKSON        SUNNY     79  59  50 W12G21    30.01R
LAMBERTVILLE   SUNNY     81  62  53 W8        30.00S
LANSING        SUNNY     80  59  48 W16       29.99S
LAPEER         FAIR      80  57  46 W10G16    29.95S
MASON          SUNNY     78  56  46 NW14      29.99S
MONROE         SUNNY     81  63  54 W8        29.98S
MT. CLEMENS    MOSUNNY   82  55  39 W15G23    29.93S
PONTIAC        MOSUNNY   79  58  48 W16       29.96S
PORT HOPE        N/A     78  59  51 W9G24     29.87S
PORT HURON     SUNNY     79  63  57 W6        29.93F
TRI CITIES     SUNNY     81  57  43 W20G26    29.93F
MIDLAND        FAIR      81  52  36 NW17G23   29.92S
TROY           SUNNY     82  54  38 NW10      29.97F
SAGINAW HB     SUNNY     81  59  47 W12G21    29.93S
$$
MIZ043>046-050>051-056>058-064>065-071>073-077>080-301700-
SOUTHWEST LOWER MICHIGAN

CITY           SKY/WX    TMP DP  RH WIND       PRES   REMARKS
BATTLE CREEK   SUNNY     81  58  45 W18G25    30.02S
BENTON HARBOR  SUNNY     77  61  57 W15       30.05R
BIG RAPIDS     SUNNY     78  48  34 W17G23    29.96S
COLDWATER      SUNNY     79  55  43 NW12G17   30.03S
FREMONT        FAIR      79  53  40 W13       29.98S
HOLLAND        SUNNY     77  60  55 W9G21     30.03R
GRAND RAPIDS   MOSUNNY   82  55  39 NW16G28   30.00R
IONIA          FAIR      82  56  40 W14       29.98S
KALAMAZOO      SUNNY     82  57  42 NW14G22   30.03R
LUDINGTON      SUNNY     76  63  63 W13G18    29.97S
MARSHALL       SUNNY     81  58  45 W14       30.01S
MOUNT PLEASANT SUNNY     83  52  34 W14G26    29.94R
MUSKEGON       SUNNY     78  54  43 W12       30.00S
SOUTH HAVEN    SUNNY     75  61  61 W12G17    30.04R
$$
MIZ016>042-301700-
NORTHERN LOWER MICHIGAN

CITY           SKY/WX    TMP DP  RH WIND       PRES   REMARKS
ALPENA         SUNNY     82  52  35 NW14G25   29.82S
BEAVER ISLAND  SUNNY     74  59  59 W15G22    29.85S
BELLAIRE       SUNNY     78  55  44 W10G21    29.88S
CADILLAC       SUNNY     81  53  37 W15G23    29.94S
CHARLEVOIX     SUNNY     76  58  54 W23G31    29.89S
FRANKFORT      SUNNY     74  61  64 W13G18    29.93S
GAYLORD        SUNNY     78  51  38 W17G35    29.88S
GRAYLING       SUNNY     79  52  38 W13G29    29.90S
HARBOR SPRINGS SUNNY     74  59  58 W13G22    29.86R
HOUGHTON LAKE  SUNNY     79  53  40 W18G25    29.92R
MANISTEE       SUNNY     73  57  56 W17       29.95S
OSCODA         MOSUNNY   84  52  33 W21G26    29.84F
PELLSTON       MOSUNNY   77  55  46 W20       29.85R
ROGERS CITY    MOSUNNY   80  55  42 NW16G29   29.83R
TRAVERSE CITY  MOSUNNY   83  51  33 W18G30    29.88S
$$
MIZ007>008-015-301700-
EASTERN UPPER MICHIGAN

CITY           SKY/WX    TMP DP  RH WIND       PRES   REMARKS
KINROSS        CLOUDY    70  54  56 NW18G28   29.80F
MACKINAC ISLAN CLOUDY    73  56  54 W21G29    29.82S
$$
MIZ004>006-011>014-085-301700-
CENTRAL UPPER MICHIGAN

CITY           SKY/WX    TMP DP  RH WIND       PRES   REMARKS
ESCANABA       SUNNY     79  52  38 W21G32    29.83S
MENOMINEE      SUNNY     79  55  44 W7G17     29.89S
SAWYER-GWINN   MOSUNNY   73  52  46 NW18G26   29.86R
$$
MIZ001>003-009>011-084-301700-
WESTERN UPPER MICHIGAN

CITY           SKY/WX    TMP DP  RH WIND       PRES   REMARKS
IRON MOUNTAIN    N/A    N/A N/A N/A MISG      29.88S
HOUGHTON       SUNNY     70  53  54 W20G30    29.86R
COPPER HARBOR    N/A     68  54  60 N21G31    29.82R
IRONWOOD       SUNNY     72  55  56 W13G21    29.92R
$$

ABBREVIATIONS USED IN REMARKS
   TC - TEMPERATURE IN CELSIUS
  WCI - WIND CHILL INDEX
   HX - HEAT INDEX
  VSB - VISIBILITY



USA.gov is the U.S. government's official web portal to all federal, state and local government web resources and services.